B206 ZSWX-ZSWZ

Flight info

Callsign B206
Flight time 0h 43m
Altitude 17700
Route JTN81D JTN G204 SHZ B221 REMIM REMIM1F
Aircraft C750/M-SBDE3FGHRWXY/S

Departure

Time 2026-05-07 08:25
Airport Sunan Shuofang International Airport (ZSWX)

Arrival

Time 2026-05-07 09:09
Airport Wenzhou Longwan International Airport (ZSWZ)
Time Latitude Longitude Altitude Speed Heading
2026-05-07 07:51 31.50307 120.42861 24 ft 0 kts 289°
2026-05-07 08:12 31.50299 120.42887 22 ft 4 kts 289°
2026-05-07 08:12 31.50290 120.42915 26 ft 2 kts 289°
2026-05-07 08:12 31.50285 120.42939 23 ft 4 kts 257°
2026-05-07 08:12 31.50298 120.42961 26 ft 4 kts 202°
2026-05-07 08:13 31.50322 120.42972 21 ft 4 kts 200°
2026-05-07 08:13 31.50348 120.42983 22 ft 4 kts 200°
2026-05-07 08:13 31.50363 120.42989 24 ft 0 kts 200°
2026-05-07 08:18 31.50353 120.42986 25 ft 5 kts 191°
2026-05-07 08:18 31.50313 120.43021 23 ft 10 kts 108°
2026-05-07 08:18 31.50270 120.43038 24 ft 7 kts 202°
2026-05-07 08:18 31.50225 120.43018 22 ft 8 kts 200°
2026-05-07 08:19 31.50155 120.42988 21 ft 13 kts 200°
2026-05-07 08:19 31.50062 120.42948 21 ft 14 kts 201°
2026-05-07 08:19 31.49972 120.42910 23 ft 14 kts 200°
2026-05-07 08:19 31.49885 120.42872 22 ft 13 kts 200°
2026-05-07 08:20 31.49804 120.42837 21 ft 12 kts 200°
2026-05-07 08:20 31.49727 120.42805 23 ft 11 kts 199°
2026-05-07 08:20 31.49643 120.42768 21 ft 14 kts 200°
2026-05-07 08:20 31.49549 120.42728 21 ft 14 kts 200°
2026-05-07 08:21 31.49459 120.42689 21 ft 13 kts 200°
2026-05-07 08:21 31.49374 120.42653 21 ft 13 kts 200°
2026-05-07 08:21 31.49294 120.42618 21 ft 12 kts 200°
2026-05-07 08:21 31.49218 120.42585 21 ft 11 kts 200°
2026-05-07 08:22 31.49143 120.42553 22 ft 13 kts 200°
2026-05-07 08:22 31.49033 120.42506 21 ft 20 kts 200°
2026-05-07 08:22 31.48913 120.42454 21 ft 15 kts 199°
2026-05-07 08:22 31.48816 120.42412 21 ft 15 kts 200°
2026-05-07 08:23 31.48721 120.42372 21 ft 16 kts 200°
2026-05-07 08:23 31.48610 120.42323 20 ft 17 kts 199°
2026-05-07 08:23 31.48527 120.42299 21 ft 10 kts 166°
2026-05-07 08:23 31.48477 120.42347 21 ft 9 kts 140°
2026-05-07 08:24 31.48433 120.42391 21 ft 8 kts 139°
2026-05-07 08:24 31.48408 120.42446 20 ft 9 kts 101°
2026-05-07 08:24 31.48461 120.42511 20 ft 19 kts 20°
2026-05-07 08:24 31.48923 120.42709 19 ft 126 kts 20°
2026-05-07 08:25 31.49860 120.43109 404 ft 147 kts 19°
2026-05-07 08:25 31.50881 120.43528 699 ft 167 kts 18°
2026-05-07 08:25 31.52020 120.44004 957 ft 177 kts 19°
2026-05-07 08:25 31.53159 120.44531 1384 ft 177 kts 19°
2026-05-07 08:26 31.55528 120.45623 2051 ft 184 kts 19°
2026-05-07 08:26 31.56728 120.46179 2264 ft 187 kts 20°
2026-05-07 08:26 31.57725 120.46897 2179 ft 171 kts 37°
2026-05-07 08:27 31.58564 120.47995 2197 ft 190 kts 49°
2026-05-07 08:27 31.59093 120.49360 2506 ft 186 kts 75°
2026-05-07 08:27 31.59065 120.50986 2898 ft 213 kts 102°
2026-05-07 08:27 31.58147 120.52373 3273 ft 227 kts 147°
2026-05-07 08:28 31.56623 120.52717 3645 ft 227 kts 187°
2026-05-07 08:28 31.55058 120.52472 4285 ft 227 kts 187°
2026-05-07 08:28 31.53433 120.52419 4856 ft 237 kts 181°
2026-05-07 08:28 31.51798 120.52497 5358 ft 237 kts 180°
2026-05-07 08:29 31.50128 120.52549 5826 ft 240 kts 181°
2026-05-07 08:29 31.48478 120.52571 6285 ft 238 kts 181°
2026-05-07 08:29 31.46840 120.52755 6638 ft 244 kts 163°
2026-05-07 08:29 31.45366 120.53757 7012 ft 254 kts 150°
2026-05-07 08:30 31.43697 120.54671 7623 ft 274 kts 160°
2026-05-07 08:30 31.41883 120.55535 8370 ft 286 kts 159°
2026-05-07 08:30 31.40079 120.56570 9153 ft 292 kts 155°
2026-05-07 08:30 31.38266 120.57692 9940 ft 296 kts 156°
2026-05-07 08:31 31.36403 120.58776 10676 ft 303 kts 158°
2026-05-07 08:31 31.34475 120.59862 11436 ft 310 kts 159°
2026-05-07 08:31 31.32522 120.60985 12233 ft 316 kts 158°
2026-05-07 08:31 31.30534 120.62144 13070 ft 321 kts 159°
2026-05-07 08:32 31.28520 120.63308 13904 ft 324 kts 159°
2026-05-07 08:32 31.26493 120.64473 14672 ft 326 kts 159°
2026-05-07 08:32 31.24475 120.65634 15433 ft 329 kts 159°
2026-05-07 08:32 31.22420 120.66819 16223 ft 331 kts 159°
2026-05-07 08:33 31.20328 120.68023 16666 ft 344 kts 159°
2026-05-07 08:33 31.18053 120.69313 16163 ft 379 kts 159°
2026-05-07 08:33 31.15650 120.70616 16806 ft 376 kts 160°
2026-05-07 08:33 31.13241 120.71979 17170 ft 397 kts 157°
2026-05-07 08:34 31.10722 120.73577 16869 ft 428 kts 155°
2026-05-07 08:34 31.08032 120.75277 16720 ft 448 kts 158°
2026-05-07 08:34 31.05165 120.76788 16641 ft 453 kts 161°
2026-05-07 08:34 31.02264 120.78291 16643 ft 458 kts 159°
2026-05-07 08:35 30.99402 120.79986 16629 ft 462 kts 156°
2026-05-07 08:35 30.96546 120.81737 16633 ft 463 kts 157°
2026-05-07 08:35 30.93652 120.83373 16634 ft 462 kts 159°
2026-05-07 08:35 30.90739 120.84959 16636 ft 463 kts 159°
2026-05-07 08:36 30.87851 120.86611 16636 ft 463 kts 157°
2026-05-07 08:36 30.84972 120.88307 16641 ft 463 kts 157°
2026-05-07 08:36 30.82073 120.89967 16641 ft 465 kts 158°
2026-05-07 08:36 30.79189 120.91578 16639 ft 464 kts 158°
2026-05-07 08:37 30.76291 120.93221 16636 ft 465 kts 158°
2026-05-07 08:37 30.73377 120.94900 16623 ft 465 kts 157°
2026-05-07 08:37 30.70489 120.96554 16627 ft 462 kts 157°
2026-05-07 08:37 30.67593 120.98188 16626 ft 462 kts 158°
2026-05-07 08:38 30.64703 120.99822 16628 ft 462 kts 157°
2026-05-07 08:38 30.61819 121.01466 16630 ft 462 kts 157°
2026-05-07 08:38 30.58929 121.03112 16632 ft 462 kts 157°
2026-05-07 08:38 30.56041 121.04747 16632 ft 462 kts 157°
2026-05-07 08:39 30.53147 121.06384 16632 ft 462 kts 157°
2026-05-07 08:39 30.50261 121.08019 16633 ft 462 kts 157°
2026-05-07 08:39 30.47363 121.09662 16632 ft 462 kts 157°
2026-05-07 08:39 30.44513 121.11273 16624 ft 462 kts 158°
2026-05-07 08:40 30.41625 121.12904 16625 ft 462 kts 158°
2026-05-07 08:40 30.38726 121.14542 16624 ft 462 kts 158°
2026-05-07 08:40 30.35840 121.16172 16624 ft 462 kts 158°
2026-05-07 08:40 30.32907 121.17653 16618 ft 458 kts 164°
2026-05-07 08:41 30.29847 121.18589 16620 ft 454 kts 173°
2026-05-07 08:41 30.26724 121.18988 16621 ft 449 kts 181°
2026-05-07 08:41 30.23624 121.18854 16620 ft 444 kts 190°
2026-05-07 08:41 30.20598 121.18204 16619 ft 440 kts 198°
2026-05-07 08:42 30.17713 121.17066 16625 ft 433 kts 206°
2026-05-07 08:42 30.15026 121.15513 16626 ft 430 kts 212°
2026-05-07 08:42 30.12388 121.13869 16738 ft 429 kts 212°
2026-05-07 08:42 30.09803 121.12300 17495 ft 416 kts 211°
2026-05-07 08:43 30.07228 121.10717 17604 ft 424 kts 212°
2026-05-07 08:43 30.04608 121.09078 17606 ft 431 kts 212°
2026-05-07 08:43 30.01979 121.07451 17609 ft 434 kts 212°
2026-05-07 08:43 29.99309 121.05821 17605 ft 434 kts 211°
2026-05-07 08:44 29.96635 121.04181 17605 ft 435 kts 212°
2026-05-07 08:44 29.93968 121.02523 17604 ft 436 kts 212°
2026-05-07 08:44 29.91285 121.00856 17605 ft 436 kts 212°
2026-05-07 08:44 29.88608 120.99204 17612 ft 436 kts 212°
2026-05-07 08:45 29.85935 120.97560 17614 ft 436 kts 212°
2026-05-07 08:45 29.83256 120.95911 17614 ft 437 kts 212°
2026-05-07 08:45 29.80555 120.94241 17612 ft 441 kts 212°
2026-05-07 08:45 29.77860 120.92582 17605 ft 438 kts 212°
2026-05-07 08:46 29.75170 120.90932 17600 ft 438 kts 212°
2026-05-07 08:46 29.72475 120.89266 17600 ft 439 kts 213°
2026-05-07 08:46 29.69780 120.87602 17602 ft 440 kts 212°
2026-05-07 08:46 29.67079 120.85946 17613 ft 439 kts 212°
2026-05-07 08:47 29.64376 120.84288 17609 ft 441 kts 212°
2026-05-07 08:47 29.61600 120.82749 17590 ft 444 kts 207°
2026-05-07 08:47 29.59663 120.81988 17599 ft 447 kts 201°
2026-05-07 08:47 29.55600 120.81066 17595 ft 455 kts 191°
2026-05-07 08:48 29.53457 120.80855 17598 ft 456 kts 189°
2026-05-07 08:48 29.50288 120.80542 17604 ft 456 kts 189°
2026-05-07 08:48 29.47132 120.80201 17610 ft 456 kts 190°
2026-05-07 08:48 29.43968 120.79869 17613 ft 457 kts 189°
2026-05-07 08:49 29.40844 120.79562 17610 ft 457 kts 189°
2026-05-07 08:49 29.39784 120.79458 17614 ft 456 kts 189°
2026-05-07 08:49 29.39778 120.79458 17614 ft 456 kts 189°
2026-05-07 08:49 29.35440 120.79018 17605 ft 456 kts 189°
2026-05-07 08:50 29.33298 120.78795 17599 ft 457 kts 189°
2026-05-07 08:50 29.30171 120.78475 17577 ft 456 kts 189°
2026-05-07 08:50 29.26999 120.78158 17598 ft 458 kts 189°
2026-05-07 08:50 29.23822 120.77840 17593 ft 457 kts 189°
2026-05-07 08:51 29.20657 120.77515 17596 ft 457 kts 189°
2026-05-07 08:51 29.17486 120.77182 17607 ft 458 kts 189°
2026-05-07 08:51 29.14310 120.76861 17604 ft 458 kts 189°
2026-05-07 08:51 29.11128 120.76553 17608 ft 458 kts 189°
2026-05-07 08:52 29.07956 120.76236 17608 ft 457 kts 189°
2026-05-07 08:52 29.04794 120.75907 17600 ft 457 kts 189°
2026-05-07 08:52 29.01633 120.75588 17595 ft 455 kts 189°
2026-05-07 08:52 28.98479 120.75276 17594 ft 456 kts 189°
2026-05-07 08:53 28.95315 120.74952 17595 ft 455 kts 189°
2026-05-07 08:53 28.92156 120.74626 17604 ft 456 kts 189°
2026-05-07 08:53 28.89043 120.74313 17599 ft 457 kts 189°
2026-05-07 08:53 28.86365 120.74051 17592 ft 456 kts 189°
2026-05-07 08:54 28.83169 120.73727 17601 ft 456 kts 189°
2026-05-07 08:54 28.80050 120.73390 17605 ft 455 kts 190°
2026-05-07 08:54 28.76947 120.73062 17504 ft 430 kts 189°
2026-05-07 08:54 28.74080 120.72781 16885 ft 399 kts 189°
2026-05-07 08:55 28.71377 120.72507 15890 ft 383 kts 190°
2026-05-07 08:55 28.68737 120.72209 14623 ft 379 kts 191°
2026-05-07 08:55 28.66131 120.71923 13402 ft 374 kts 190°
2026-05-07 08:55 28.63556 120.71666 12251 ft 365 kts 189°
2026-05-07 08:56 28.61085 120.71411 11638 ft 346 kts 189°
2026-05-07 08:56 28.58781 120.71181 11374 ft 319 kts 188°
2026-05-07 08:56 28.56662 120.70956 11087 ft 297 kts 189°
2026-05-07 08:56 28.54596 120.70736 10325 ft 299 kts 188°
2026-05-07 08:57 28.52540 120.70523 9713 ft 295 kts 188°
2026-05-07 08:57 28.50509 120.70311 9002 ft 292 kts 188°
2026-05-07 08:57 28.48489 120.70100 8256 ft 290 kts 187°
2026-05-07 08:57 28.46482 120.69888 7592 ft 286 kts 187°
2026-05-07 08:58 28.44513 120.69685 6999 ft 289 kts 186°
2026-05-07 08:58 28.42551 120.69489 6874 ft 276 kts 186°
2026-05-07 08:58 28.40616 120.69302 6871 ft 281 kts 186°
2026-05-07 08:58 28.38651 120.69108 6870 ft 283 kts 186°
2026-05-07 08:59 28.36710 120.69437 6809 ft 287 kts 156°
2026-05-07 08:59 28.35180 120.70868 6848 ft 285 kts 131°
2026-05-07 08:59 28.33894 120.72623 6878 ft 289 kts 129°
2026-05-07 08:59 28.32539 120.74320 6879 ft 289 kts 133°
2026-05-07 09:00 28.31128 120.75953 6878 ft 289 kts 134°
2026-05-07 09:00 28.29735 120.77600 6879 ft 290 kts 133°
2026-05-07 09:00 28.28347 120.79290 6858 ft 290 kts 133°
2026-05-07 09:00 28.26964 120.80962 6879 ft 293 kts 133°
2026-05-07 09:01 28.25558 120.82642 6873 ft 293 kts 133°
2026-05-07 09:01 28.24188 120.84285 6624 ft 286 kts 133°
2026-05-07 09:01 28.22808 120.85945 5846 ft 290 kts 132°
2026-05-07 09:01 28.21433 120.87592 5274 ft 288 kts 132°
2026-05-07 09:02 28.20058 120.89251 4894 ft 282 kts 131°
2026-05-07 09:02 28.18977 120.91042 4895 ft 276 kts 117°
2026-05-07 09:02 28.18072 120.92997 4899 ft 280 kts 116°
2026-05-07 09:02 28.17165 120.94953 4909 ft 281 kts 116°
2026-05-07 09:03 28.16084 120.96778 4854 ft 279 kts 134°
2026-05-07 09:03 28.14419 120.97899 4881 ft 281 kts 159°
2026-05-07 09:03 28.12517 120.98360 4873 ft 281 kts 178°
2026-05-07 09:03 28.10656 120.97795 4861 ft 277 kts 211°
2026-05-07 09:04 28.09064 120.96494 4221 ft 289 kts 222°
2026-05-07 09:04 28.07573 120.95017 3581 ft 271 kts 221°
2026-05-07 09:04 28.06260 120.93887 3080 ft 209 kts 211°
2026-05-07 09:04 28.05080 120.93188 2627 ft 177 kts 204°
2026-05-07 09:05 28.03977 120.92757 2142 ft 161 kts 197°
2026-05-07 09:05 28.02983 120.92363 1771 ft 143 kts 197°
2026-05-07 09:05 28.02099 120.91954 1619 ft 139 kts 202°
2026-05-07 09:05 28.01228 120.91475 1500 ft 135 kts 204°
2026-05-07 09:06 28.00373 120.90956 1305 ft 139 kts 206°
2026-05-07 09:06 27.99525 120.90431 1326 ft 141 kts 205°
2026-05-07 09:06 27.98647 120.89914 1239 ft 139 kts 204°
2026-05-07 09:06 27.97785 120.89422 1193 ft 140 kts 205°
2026-05-07 09:07 27.96908 120.88898 1067 ft 141 kts 206°
2026-05-07 09:07 27.96092 120.88402 918 ft 130 kts 206°
2026-05-07 09:07 27.95314 120.87930 764 ft 131 kts 207°
2026-05-07 09:07 27.94511 120.87442 601 ft 131 kts 206°
2026-05-07 09:08 27.93724 120.86960 431 ft 129 kts 207°
2026-05-07 09:08 27.92938 120.86474 248 ft 131 kts 207°
2026-05-07 09:08 27.92127 120.85988 44 ft 131 kts 207°
2026-05-07 09:08 27.91408 120.85537 4 ft 89 kts 205°
2026-05-07 09:09 27.91303 120.85425 6 ft 3 kts 191°